www.pogodaiklimat.ru

Погода и климат >> Архив погоды >> Россия >> Якутия >> Себян-Кюель


ПОГОДА в Себян-Кюеле

  • Прогноз погоды в Себян-Кюеле
  • Монитор погоды в Себян-Кюеле

АРХИВ ПОГОДЫ в Себян-Кюеле

Время (UTC), дата Ветер
(напр.,м/с)
 
Видим.   Явления Облачность Т
(С)
Тd
(С)
f
(%)
Тe
(С)
Тes
(С)
Комфортность P
(гПа)
Po
(гПа)
Тmin
(С)
Tmax
(С)
R
(мм)
R24
(мм)
S
(см)
00 14.07 штиль 0 20 км дым 8/0
[Ci fib]
+23.6 +10.7 44 +25 +33 комфорт 1003.3 918.4 +7.1
03 14.07 З 4 20 км дым 3/3 1500 м
[Cu med, cong]
+27.4 +7.8 29 +27 +32 жарко 1001.5 917.7
06 14.07 З 4 20 км дым 10/4 1500 м
[Cu med, cong Ac trans Ci fib]
+25.9 +9.4 35 +26 +28 жарко 1001.5 917.4
09 14.07 З 4
{12}
20 км дым 10/6 1500 м
[Cu med, cong Ac trans Cs]
+23.7 +10.4 43 +25 +25 комфорт 1003.2 918.3
12 14.07 СЗ 1 20 км слаб. ливневой дождь 10/6 1500 м
[Cb cap Ac trans Cs]
+16.1 +12.9 81 +17 +17 1007.3 920.0 +27.6 0.0
15 14.07 СЗ 1 50 км {ливн. осадки} 3/0
[Ac trans]
+9.9 +9.1 95 +9 +9 1010.1 920.7
18 14.07 СВ 3 50 км ясно +13.6 +10.8 83 +12 +12 1010.5 922.2
21 14.07 В 1 50 км 6/6 1000 м
[Sc]
+11.7 +8.7 82 +12 +12 1012.4 923.3
00 15.07 В 1 50 км 10/10 540 м
[Sc]
+10.6 +9.2 91 +10 +10 1013.1 923.6 +9.9 0.3
03 15.07 В 2 50 км 10/10 500 м
[Sc]
+12.3 +8.3 77 +11 +11 1012.5 923.5
06 15.07 В 1 50 км 8/8 1000 м
[Sc]
+14.9 +8.8 67 +15 +18 1011.0 923.0
09 15.07 В 2 50 км ясно +17.4 +9.7 61 +18 +21 1009.0 921.8
12 15.07 В 2 50 км ясно +14.9 +9.9 72 +15 +15 1010.0 922.0 +17.4
15 15.07 З 1 50 км ясно +5.4 +4.7 95 +4 +4 1013.7 922.4
18 15.07 З 1 н/о н/о +4.1 +3.7 97 +2 +2 1013.9 922.2
21 15.07 СВ 1 н/о н/о +7.9 +7.5 97 +7 +7 1012.8 922.5
00 16.07 штиль 0 50 км 10/10 500 м
[Sc]
+10.5 +8.5 87 +10 +10 1012.0 922.6 +1.9
03 16.07 В 2 20 км дым 10/10 630 м
[Sc]
+13.4 +8.9 74 +13 +13 1010.9 922.4
06 16.07 В 2 10 км дым 10/9 930 м
[Sc]
+15.4 +8.8 65 +15 +16 1009.0 921.3
09 16.07 В 2 10 км дым 10/6 600 м
[Sc]
+16.2 +8.4 60 +16 +17 1007.8 920.4
12 16.07 В 1 20 км дым 8/0
[Ac As]
+13.3 +9.2 76 +14 +14 1009.2 920.8 +17.4
15 16.07 штиль 0 20 км дым 4/0
[Ac trans]
+5.6 +4.9 95 +4 +4 1011.6 920.6
18 16.07 штиль 0 н/о н/о +1.9 +1.6 98 +1 +1 1012.2 919.9
21 16.07 З 1 20 км дым 6/0
[Ac trans]
+7.8 +5.9 88 +7 +7 1008.3 918.3
00 17.07 штиль 0 20 км дым 10/10 1000 м
[Sc]
+10.9 +7.6 80 +10 +10 1005.7 916.9 +1.2
03 17.07 З 3 4000 м ливневой дождь 10/10 1000 м
[Cb cap]
+13.3 +9.8 79 +12 +12 1003.5 915.6
06 17.07 З 1 50 км {ливн. осадки} 10/10 1000 м
[Cb cap]
+12.7 +11.0 89 +13 +13 999.9 912.2
09 17.07 Ю 2 50 км {ливн. осадки} 10/10 1000 м
[Cb cap]
+12.1 +11.0 93 +11 +11 997.8 910.1
12 17.07 С 5 4000 м ливневой дождь 10/10 1000 м
[Cb cap]
+10.4 +8.4 87 +7 +7 998.6 910.3 +16.4 11
15 17.07 В 2
{14}
4000 м ливневой дождь 10/10 1000 м
[Cb cap]
+8.9 +6.3 84 +7 +7 1001.7 912.6
18 17.07 В 2 н/о н/о +6.9 +3.7 80 +5 +5 1003.9 914.0
21 17.07 В 2 н/о н/о +4.2 +1.3 81 +2 +2 1007.3 916.2
00 18.07 ЮВ 2 50 км 10/10 700 м
[Sc]
+3.6 -0.6 74 +1 +1 1009.9 918.3 +2.8 2
03 18.07 СВ 2 50 км 10/10 720 м
[Sc]
+4.5 -0.6 69 +2 +2 1010.3 919.0
06 18.07 В 3
{10}
50 км 10/10 720 м
[Sc]
+4.4 +0.5 76 +1 +1 1012.0 920.5
09 18.07 В 2 10 км 10/10 330 м
[St]
+2.8 +0.1 82 -0 -0 1014.4 922.2
12 18.07 В 2 4000 м дождь 10/10 500 м
[Sc]
+3.0 -0.2 79 0 0 1014.9 922.7 +4.8 0.6
15 18.07 В 2 10 км дым {дождь} 10/10 500 м
[Sc]
+3.0 -0.5 78 0 0 1014.8 922.6
18 18.07 В 3 10 км дым {дождь} 10/10 540 м
[Sc]
+2.7 -0.5 79 -1 -1 1014.2 922.0
21 18.07 В 2 10 км дым 10/10 500 м
[Sc]
+2.3 -0.7 81 -1 -1 1015.0 922.6
00 19.07 СЗ 3 20 км дым 10/10 540 м
[Sc]
+2.5 -1.1 77 -1 -1 1015.5 923.1 +2.3 0.0
03 19.07 В 1
{12}
20 км слаб. дождь 10/10 600 м
[Sc]
+3.6 -0.1 77 +2 +2 1016.1 924.0
06 19.07 СВ 3 4000 м дождь 10/10 540 м
[Sc]
+4.1 +0.1 75 +1 +1 1017.2 925.1
09 19.07 С 4
{10}
20 км слаб. дождь 10/10 480 м
[Sc]
+3.9 -0.4 74 -0 -0 1018.9 926.7
12 19.07 штиль 0 4000 м дождь 10/10 300 м
[Sc]
+3.5 +0.9 83 +3 +3 1019.5 927.1 +4.5 2
15 19.07 З 3 10 км дождь 10/10 800 м
[Sc]
+4.4 +2.2 86 +1 +1 1019.3 927.2
18 19.07 С 1 н/о н/о +4.6 +2.0 83 +3 +3 1020.3 928.1
21 19.07 штиль 0 н/о н/о +4.7 +1.3 79 +4 +4 1021.7 929.4
00 20.07 С 3 н/о н/о +5.2 +1.2 75 +2 +2 1022.5 930.3 +3.3
03 20.07 ЮВ 1 н/о н/о +8.1 +1.9 65 +8 +8 1021.6 930.4
06 20.07 В 3 н/о н/о +11.7 +3.3 56 +10 +10 1019.1 929.3
09 20.07 В 2 н/о н/о +13.9 +2.0 44 +14 +14 1017.9 928.8
12 20.07 штиль 0 н/о н/о +7.5 +4.1 79 +7 +7 1020.5 929.3 +14.0
15 20.07 З 1 н/о н/о +0.5 -0.4 94 -2 -2 1023.8 930.0
18 20.07 З 2 н/о н/о -0.3 -1.2 94 -4 -4 1024.5 930.3
21 20.07 З 2 н/о н/о +5.0 +1.3 77 +3 +3 1022.4 930.2

 

Местоположение метеостанции Себян-Кюель (Якутия, Россия): широта 65.30 долгота 130.00 высота над уровнем моря 777 м.

В архиве по умолчанию представлена погода в Себян-Кюеле за последнюю неделю. Архивные данные за месяц целиком и за предыдущие месяцы, начиная с января 2011 года, Вы можете получить, выбрав интересующий диапазон дат из раскрывающегося списка и нажав кнопку "Ввод!".


*Определитесь, кто Вы:
робот инопланетянин человек

Внимание! Время в таблицах - всемирное. Для получения местного времени необходимо прибавить поправку, которая равна 9 ч.

Смотрите также архив погоды в соседних городах и на ближайших метеорологических станциях:

Погода в Сеген-Кюеле (Якутия, Россия) (145 км)
Погода в Екюччю (Якутия, Россия) (179 км)
Погода в Сангаре (Якутия, Россия) (195 км)
Погода в Батамае (Якутия, Россия) (200 км)
Погода в Сого-Хае (Якутия, Россия) (205 км)
Погода в Верхоянском Перевозе (Якутия, Россия) (240 км)
Погода в Иэме (Якутия, Россия) (269 км)
Погода в Бестяхской Звероферме (Якутия, Россия) (274 км)
Погода в Батагай-Алыте (Якутия, Россия) (276 км)
Погода в Намцах (Якутия, Россия) (288 км)

Пояснения к столбцам:

Ветер - указаны скорость ветра в м/с - средняя за 10 мин, порывы в срок и между сроками (в фигурных скобках) и направление, откуда дует ветер: С - северный, СВ - северо-восточный, В - восточный, ЮВ - юго-восточный, Ю - южный, ЮЗ - юго-западный, З - западный, СЗ - северо-западный.
Видимость - горизонтальная дальность видимости в метрах или километрах. При видимости от 1 до 10 км при отсутствии осадков обычно наблюдается дымка, при ухудшении видимости до 1 км и менее - туман. В сухую погоду видимость может ухудшаться дымом, пылью или мглою.
Явления - указаны атмосферные явления, наблюдавшиеся в срок или в последний час перед сроком; фигурными скобками обозначены явления, наблюдавшиеся между сроками (за 1-3 часа до срока); квадратными скобками обозначены град или гололедные отложения с указанием их диаметра в мм.
Облачность - указаны через наклонную черту общая и нижняя облачность в баллах и высота нижней границы облаков в метрах; квадратными скобками обозначены формы облаков: Ci - перистые, Cs - перисто-слоистые, Cc - перисто-кучевые, Ac - высококучевые, As - высокослоистые, Sc - слоисто-кучевые, Ns - слоисто-дождевые, Cu - кучевые, Cb - кучево-дождевые. Подробнее классификацию облаков см. в Атласе облаков (PDF).
T - Температура воздуха - температура, измеренная на высоте 2 м над землей.
Td - Температура точки росы - температура, при понижении до которой содержащийся в воздухе водяной пар достигнет насыщения.
f - Относительная влажность воздуха - влажноcть воздуха, измеренная на высоте 2 м над землей.
Te - Эффективная температура - температура, которую ощущает одетый по сезону человек в тени. Характеристика душности погоды. При расчете учитывается влияние влажности воздуха и скорости ветра на теплоощущения человека.
Tes - Эффективная температура на солнце - температура, которую ощущает человек, с поправкой на солнечный нагрев. Характеристика знойности погоды. Зависит от высоты солнца над горизонтом, облачности и скорости ветра. Ночью, в пасмурную погоду, а также при ветре 12 м/с и более поправка равна нулю.
P - Атмосферное давление - приведенное к уровню моря атмосферное давление.
Po - Атмосферное давление - измеренное на уровне метеостанции атмосферное давление.
Tmin - Минимальная температура - минимум температуры воздуха на высоте 2 м над землей.
Tmax - Максимальная температура - максимум температуры воздуха на высоте 2 м над землей.
R - Количество осадков - Количество выпавших осадков за период времени, мм. При наведении курсора мыши на число - период времени, за который выпало указанное количество осадков.
R24 - Количество осадков - Количество выпавших осадков за 24 часа, мм.
S - Снежный покров - Высота снежного покрова, см. При наведении курсора мыши на число - состояние снежного покрова и степень покрытия местности в баллах.